Location: Hartford
(41.7640°N, 72.6860°W)
Time: 00:26:29
(UTC-04:00)

ISS - All Passes

Search period start: 24 September 2014 00:00
Search period end: 04 October 2014 00:00
Orbit: 413 x 416 km, 51.6° (Epoch: 23 September)

Date Brightness Start Highest point End Pass type
(mag) Time Alt. Az. Time Alt. Az. Time Alt. Az.
24 Sep - 00:01:57 10° SSE 00:03:28 13° SE 00:05:00 10° ESE night (unlit)
24 Sep - 01:36:26 10° WSW 01:39:45 77° NW 01:43:05 10° NE night (unlit)
24 Sep - 03:14:21 10° WNW 03:16:53 20° NNW 03:19:25 10° NE visible
24 Sep - 04:52:27 10° NNW 04:54:32 15° N 04:56:37 10° NE visible
24 Sep - 06:28:57 10° NW 06:32:00 32° NNE 06:35:02 10° E daylight
24 Sep - 08:05:38 10° WNW 08:08:44 36° SW 08:11:48 10° SSE daylight
25 Sep - 00:47:33 10° SW 00:50:50 61° SE 00:54:08 10° ENE night (unlit)
25 Sep - 02:24:56 10° WNW 02:27:45 25° NNW 02:30:35 10° NE night (unlit)
25 Sep - 04:03:19 10° NW 04:05:19 15° N 04:07:20 10° NE visible
25 Sep - 05:40:07 10° NW 05:42:54 24° NNE 05:45:41 10° ENE visible
25 Sep - 07:16:33 10° WNW 07:19:51 66° SW 07:23:09 10° SE daylight
25 Sep - 23:58:56 10° SSW 00:01:58 33° SE 00:05:01 10° ENE night (unlit)
26 Sep - 01:35:35 10° W 01:38:39 34° NNW 01:41:45 10° NE night (unlit)
26 Sep - 03:14:00 10° NW 03:16:06 16° N 03:18:12 10° NNE visible
26 Sep - 04:51:15 10° NW 04:53:45 19° NNE 04:56:14 10° ENE visible
26 Sep - 06:27:34 10° NW 06:30:54 71° NNE 06:34:13 10° ESE daylight
26 Sep - 08:05:27 10° W 08:07:13 14° SW 08:08:58 10° SSW daylight
26 Sep - 23:10:40 10° S 23:13:07 19° SE 23:15:36 10° E night (unlit)
27 Sep - 00:46:20 10° WSW 00:49:35 52° NNW 00:52:51 10° NE night (unlit)
27 Sep - 02:24:32 10° NW 02:26:52 17° NNW 02:29:11 10° NNE night (unlit)
27 Sep - 04:02:18 10° NNW 04:04:31 17° N 04:06:45 10° NE visible
27 Sep - 05:38:39 10° NW 05:41:52 44° NNE 05:45:04 10° ESE visible
27 Sep - 07:15:41 10° W 07:18:24 24° SW 07:21:07 10° S daylight
27 Sep - 22:23:19 10° SSE 22:24:20 11° SE 22:25:20 10° ESE night (unlit)
27 Sep - 23:57:13 10° SW 00:00:33 86° NW 00:03:54 10° NE night (unlit)
28 Sep - 01:35:02 10° WNW 01:37:38 21° NNW 01:40:14 10° NE night (unlit)
28 Sep - 03:13:12 10° NW 03:15:15 15° N 03:17:19 10° NE visible
28 Sep - 04:49:45 10° NW 04:52:45 30° NNE 04:55:44 10° E visible
28 Sep - 06:26:21 10° WNW 06:29:31 41° SW 06:32:40 10° SSE daylight
28 Sep - 23:08:19 10° SW 23:11:33 53° SE 23:14:49 10° ENE night (unlit)
29 Sep - 00:45:32 10° W 00:48:25 26° NNW 00:51:19 10° NE night (unlit)
29 Sep - 02:23:56 10° NW 02:25:57 15° N 02:27:59 10° NE night (unlit)
29 Sep - 04:00:50 10° NW 04:03:33 23° NNE 04:06:16 10° ENE visible
29 Sep - 05:37:13 10° WNW 05:40:33 75° SW 05:43:51 10° SE visible
29 Sep - 22:19:40 10° SSW 22:22:36 29° SE 22:25:33 10° ENE night (unlit)
29 Sep - 23:56:07 10° W 23:59:14 37° NNW 00:02:22 10° NE night (unlit)
30 Sep - 01:34:30 10° NW 01:36:38 16° N 01:38:47 10° NNE night (unlit)
30 Sep - 03:11:51 10° NNW 03:14:17 18° NNE 03:16:43 10° ENE visible
30 Sep - 04:48:10 10° NW 04:51:29 63° NNE 04:54:47 10° ESE visible
30 Sep - 06:25:47 10° W 06:27:50 16° SW 06:29:54 10° S daylight
30 Sep - 21:31:26 10° S 21:33:41 17° SE 21:35:57 10° E night (unlit)
30 Sep - 23:06:48 10° WSW 23:10:05 58° NNW 23:13:23 10° NE night (unlit)
01 Oct - 00:44:56 10° WNW 00:47:19 18° NNW 00:49:42 10° NNE night (unlit)
01 Oct - 02:22:47 10° NNW 02:24:58 16° N 02:27:09 10° NE night (unlit)
01 Oct - 03:59:10 10° NW 04:02:20 40° NNE 04:05:30 10° E visible
01 Oct - 05:36:04 10° WNW 05:38:56 27° SW 05:41:47 10° SSE visible
01 Oct - 22:17:39 10° SW 22:20:58 83° SE 22:24:19 10° ENE night (unlit)
01 Oct - 23:55:20 10° WNW 23:58:00 22° NNW 00:00:40 10° NE night (unlit)
02 Oct - 01:33:34 10° NW 01:35:36 15° N 01:37:38 10° NE night (unlit)
02 Oct - 03:10:11 10° NW 03:13:07 28° NNE 03:16:02 10° E night (unlit)
02 Oct - 04:46:43 10° WNW 04:49:56 47° SW 04:53:08 10° SE visible
02 Oct - 21:28:42 10° SSW 21:31:54 46° SE 21:35:07 10° ENE night (unlit)
02 Oct - 23:05:45 10° W 23:08:42 28° NNW 23:11:40 10° NE night (unlit)
03 Oct - 00:44:10 10° NW 00:46:12 15° N 00:48:15 10° NE night (unlit)
03 Oct - 02:21:10 10° NW 02:23:49 21° NNE 02:26:28 10° ENE night (unlit)
03 Oct - 03:57:31 10° NW 04:00:51 86° SW 04:04:10 10° SE visible
03 Oct - 20:40:03 10° SSW 20:42:52 26° SE 20:45:42 10° ENE visible
03 Oct - 22:16:16 10° W 22:19:26 41° NNW 22:22:37 10° NE night (unlit)
03 Oct - 23:54:36 10° NW 23:56:48 16° N 23:58:59 10° NNE night (unlit)
